Date,TemperatureHighF,TemperatureAvgF,TemperatureLowF,DewpointHighF,DewpointAvgF,DewpointLowF,HumidityHigh,HumidityAvg,HumidityLow,PressureMaxIn,PressureMinIn,WindSpeedMaxMPH,WindSpeedAvgMPH,GustSpeedMaxMPH,PrecipitationSumIn
2013-4-20,56.0,50.1,44.0,51.0,42.9,36.0,98,78,51,30.19,29.70,16,6,21,0.00
2013-4-21,52.0,42.2,36.0,36.0,29.7,25.0,75,61,43,30.63,30.18,26,9,28,0.00
2013-6-1,71.0,65.4,59.0,62.0,59.6,56.0,93,82,73,30.02,29.92,15,10,32,0.00
2013-6-2,70.0,63.2,58.0,62.0,58.0,-99.9,95,87,74,29.95,29.82,18,10,23,0.00
2013-6-3,65.0,60.5,58.0,63.0,58.9,57.0,96,94,91,29.87,29.80,14,7,21,0.00
2013-6-4,69.0,61.2,54.0,60.0,49.5,45.0,96,66,50,30.06,29.81,18,8,20,0.00
2013-6-5,69.0,61.6,55.0,56.0,51.4,47.0,90,70,52,30.19,30.06,11,5,21,0.00
2013-6-6,68.0,60.6,54.0,60.0,56.1,51.0,95,86,73,30.17,30.09,14,3,29,0.00
2013-6-13,63.0,58.6,54.0,57.0,54.7,51.0,96,87,80,29.82,29.50,24,7,32,0.00
2013-6-14,65.0,57.6,52.0,56.0,53.5,51.0,99,87,68,29.80,29.49,21,10,32,0.00
2013-6-15,75.0,65.4,59.0,58.0,55.5,51.0,92,73,45,29.94,29.80,13,6,19,0.00
2013-6-16,72.0,65.5,60.0,63.0,59.2,54.0,91,81,67,29.96,29.75,14,6,24,0.00
2013-6-17,78.0,68.7,64.0,67.0,62.4,58.0,91,81,67,29.90,29.80,14,5,21,0.00
2013-6-18,75.0,65.2,59.0,67.0,61.0,57.0,95,86,73,29.90,29.82,14,4,17,0.00
2013-6-19,73.0,63.0,57.0,60.0,56.9,54.0,97,82,60,30.12,29.82,12,6,18,0.00
2013-6-20,73.0,64.5,58.0,61.0,57.1,54.0,92,78,62,30.25,30.13,12,6,19,0.00
2013-6-22,74.0,69.8,63.0,64.0,62.1,60.0,93,77,68,30.24,30.12,10,7,18,0.00
2013-6-23,75.0,68.3,62.0,66.0,63.6,60.0,95,85,71,30.17,30.05,17,8,25,0.00
2013-6-24,85.0,72.2,65.0,72.0,66.6,61.0,95,84,64,30.06,29.87,13,6,25,0.00
2013-6-25,81.0,72.6,68.0,70.0,65.4,62.0,90,79,66,29.93,29.74,14,6,25,0.00
2013-6-26,81.0,74.4,68.0,70.0,66.5,64.0,88,77,67,29.80,29.73,10,5,19,0.00
2013-6-27,75.0,69.2,66.0,68.0,65.6,64.0,93,88,78,29.79,29.68,10,3,18,0.00
2013-6-28,73.0,67.8,66.0,69.0,65.8,64.0,96,93,85,29.66,29.50,17,6,21,0.00
2013-6-29,74.0,68.5,65.0,69.0,66.0,64.0,97,91,82,29.71,29.48,13,5,19,0.00
2013-6-30,74.0,68.4,65.0,69.0,65.8,64.0,96,91,80,29.93,29.71,13,4,15,0.00
2013-7-1,73.0,68.4,66.0,70.0,66.5,65.0,97,94,87,30.07,29.93,12,4,14,0.00
2013-7-2,73.0,69.3,67.0,71.0,67.2,65.0,97,93,86,30.17,30.06,12,4,16,0.00
2013-7-3,77.0,70.3,66.0,71.0,67.7,65.0,97,92,81,30.22,30.16,13,7,24,0.00
2013-7-4,80.0,72.7,68.0,73.0,69.1,67.0,97,89,77,30.22,30.12,19,9,27,0.00
2013-7-5,81.0,73.7,69.0,72.0,69.0,66.0,94,85,73,30.17,30.05,19,8,24,0.00
2013-7-6,87.0,76.4,69.0,75.0,70.2,67.0,93,82,64,30.09,29.94,12,7,19,0.00
2013-7-7,85.0,77.4,71.0,74.0,70.2,67.0,91,79,66,29.99,29.88,17,7,20,0.00
2013-7-8,83.0,73.9,70.0,71.0,66.1,-99.9,90,80,66,29.99,29.88,19,8,21,0.00
2013-7-9,81.0,72.6,67.0,72.0,68.2,65.0,93,86,69,30.03,29.97,12,4,16,0.00
2013-7-10,80.0,71.4,69.0,72.0,66.2,-99.9,95,87,76,30.01,29.79,16,5,19,0.00
2013-7-11,74.0,70.5,68.0,71.0,68.2,66.0,95,92,86,29.87,29.78,15,7,22,0.00
2013-7-12,73.0,68.5,65.0,68.0,65.2,63.0,95,89,78,30.11,29.87,17,8,43,0.00
2013-7-13,74.0,68.9,65.0,71.0,67.3,64.0,98,95,89,30.26,30.11,13,4,26,0.00
2013-7-14,82.0,74.3,69.0,74.0,70.4,68.0,97,88,74,30.28,30.12,12,4,18,0.00
2013-7-15,87.0,78.4,72.0,74.0,70.7,68.0,91,78,62,30.17,30.03,17,3,17,0.00
2013-7-16,87.0,78.1,72.0,71.0,68.6,67.0,86,73,56,30.10,30.02,9,4,12,0.00
2013-7-17,85.0,77.1,71.0,73.0,70.1,68.0,92,80,64,30.13,30.00,14,4,21,0.00
2013-7-18,89.0,78.9,73.0,73.0,70.8,68.0,92,77,58,30.01,29.88,12,6,16,0.00
2013-7-19,84.0,78.1,74.0,75.0,72.3,70.0,100,83,72,29.91,29.74,17,9,29,0.00
2013-7-20,82.0,76.1,72.0,73.0,69.6,-99.9,93,82,69,29.78,29.66,20,9,30,0.00
2013-7-21,80.0,73.4,69.0,71.0,65.1,61.0,91,76,59,29.93,29.78,11,3,12,0.00
2013-7-22,77.0,71.1,69.0,71.0,68.2,67.0,95,90,78,29.94,29.84,10,4,19,0.00
2013-7-23,79.0,73.5,69.0,75.0,70.6,67.0,96,91,78,0.00,40.00,14,6,0,0.00
2013-7-24,83.0,74.7,68.0,73.0,68.5,62.0,100,82,66,0.00,40.00,10,3,0,0.00
2013-7-25,69.0,63.4,60.0,62.0,58.5,55.0,95,85,73,0.00,40.00,17,8,0,0.00
2013-7-26,69.0,63.7,60.0,64.0,61.4,58.0,97,92,83,0.00,40.00,19,8,0,0.00
2013-7-27,79.0,70.9,65.0,70.0,66.8,63.0,100,87,75,0.00,40.00,11,5,0,0.00
2013-7-28,79.0,70.8,66.0,71.0,67.2,65.0,97,89,74,0.00,40.00,8,2,0,0.00
2013-7-29,82.0,72.4,67.0,73.0,68.4,65.0,100,88,73,0.00,40.00,10,4,0,0.00
2013-7-30,77.0,70.3,64.0,68.0,60.3,58.0,100,71,55,0.00,40.00,12,4,0,0.00
2013-7-31,80.0,70.5,65.0,68.0,61.5,59.0,100,74,57,0.00,40.00,11,3,0,0.00
2013-8-1,80.0,68.4,64.0,68.0,63.9,60.0,100,86,70,0.00,40.00,12,3,0,0.00
2013-8-2,79.0,70.5,66.0,69.0,65.4,64.0,100,84,64,0.00,40.00,15,5,0,0.00
2013-8-3,74.0,68.8,66.0,67.0,61.6,-99.9,100,83,77,29.90,29.83,13,5,21,0.00
2013-8-4,77.0,68.4,62.0,65.0,60.0,57.0,100,76,54,29.91,29.79,10,4,16,0.00
2013-8-5,73.0,66.0,62.0,57.0,53.8,50.0,79,66,46,30.05,29.91,18,6,21,0.00
2013-8-6,76.0,67.7,62.0,65.0,59.5,55.0,100,76,58,30.15,30.05,14,3,14,0.00
2013-8-7,76.0,68.7,61.0,64.0,61.7,59.0,94,79,62,30.20,30.11,11,5,29,0.00
2013-8-8,78.0,71.4,67.0,69.0,66.3,63.0,92,84,71,30.14,30.03,14,7,20,0.00
2013-8-9,72.0,69.9,69.0,70.0,68.0,67.0,96,94,91,30.06,29.82,24,7,28,0.00
2013-8-10,79.0,72.3,67.0,70.0,64.4,58.0,96,77,60,30.03,29.83,13,5,18,0.00
2013-8-11,77.0,67.8,62.0,66.0,56.2,51.0,100,68,47,30.11,30.02,9,5,19,0.00
2013-8-13,69.0,65.7,64.0,68.0,62.8,-99.9,100,93,92,29.94,29.70,10,1,19,0.00
2013-8-14,71.0,64.6,62.0,65.0,53.5,-99.9,97,73,56,29.99,29.72,13,6,21,0.00
2013-8-15,73.0,57.4,59.0,58.0,34.4,-99.9,83,64,46,30.14,30.01,13,6,16,0.00
2013-8-16,77.0,65.3,63.0,64.0,55.0,-99.9,88,78,58,30.21,30.13,12,4,14,0.00
2013-8-17,77.0,67.9,62.0,62.0,60.5,59.0,94,78,57,30.28,30.21,7,2,10,0.00
2013-8-18,73.0,64.5,62.0,64.0,56.6,-99.9,91,80,65,30.28,30.12,8,3,11,0.00
2013-8-19,77.0,62.9,60.0,65.0,45.1,-99.9,91,80,60,30.13,30.00,9,5,13,0.00
2013-8-21,82.0,73.8,66.0,70.0,66.0,62.0,93,78,61,30.16,30.04,11,4,15,0.00
2013-8-22,76.0,70.5,68.0,71.0,67.6,66.0,94,90,83,30.07,29.87,13,6,16,0.00
2013-8-23,78.0,69.7,65.0,67.0,63.7,60.0,96,82,59,30.09,29.85,12,5,14,0.00
2013-8-24,73.0,65.1,59.0,62.0,55.3,52.0,91,72,48,30.35,29.81,12,5,20,0.00
2013-8-25,77.0,65.5,59.0,64.0,55.9,-99.9,87,76,58,30.39,30.22,13,4,14,0.00
2013-8-26,74.0,67.9,64.0,65.0,62.9,61.0,100,84,73,30.24,29.93,16,8,24,0.00
2013-8-27,71.0,67.3,66.0,68.0,65.9,65.0,97,95,88,29.93,29.82,11,5,14,0.00
2013-8-28,77.0,72.7,67.0,69.0,67.3,65.0,93,84,77,29.91,29.86,7,3,10,0.00
2013-8-29,71.0,66.1,62.0,66.0,63.1,59.0,96,90,80,30.05,29.91,15,6,17,0.00
2013-8-30,73.0,66.4,60.0,66.0,62.4,57.0,94,87,77,30.04,29.87,17,6,20,0.00
2013-8-31,75.0,70.1,67.0,70.0,67.2,65.0,95,90,82,29.89,29.83,15,8,20,0.00
2013-9-1,76.0,70.2,68.0,71.0,65.7,-99.9,100,89,82,29.89,29.84,12,6,18,0.00
2013-9-2,74.0,70.1,69.0,72.0,68.5,67.0,96,94,92,29.87,29.73,7,2,11,0.00
2013-10-4,74.0,65.7,60.0,65.0,58.6,49.0,89,78,61,30.09,29.98,13,3,14,0.00
2013-10-8,63.0,59.0,56.0,52.0,47.4,44.0,77,66,54,30.32,30.05,13,7,22,0.00
2013-10-9,61.0,56.5,53.0,55.0,48.6,46.0,100,75,65,30.43,29.85,20,10,23,0.00
2013-10-10,65.0,58.5,55.0,61.0,46.8,-99.9,100,83,80,30.33,29.64,19,-38,22,0.00
2013-10-15,58.0,53.3,52.0,55.0,50.7,48.0,94,91,86,30.25,30.22,7,1,9,0.00
2013-10-17,67.0,61.8,58.0,62.0,58.9,56.0,95,91,82,29.93,29.78,11,5,15,0.00
2013-10-18,64.0,60.9,56.0,61.0,53.6,45.0,96,78,61,29.99,29.70,13,6,20,0.00
2013-10-19,65.0,57.9,51.0,52.0,24.3,-99.9,85,60,55,30.04,29.51,8,-156,11,0.00
2013-10-20,59.0,56.2,53.0,42.0,41.1,39.0,66,58,50,29.97,29.91,11,4,15,0.00
2013-10-21,56.0,56.0,56.0,47.0,46.4,45.0,72,70,67,121.06,40.00,11,9,0,0.00
2013-10-23,48.0,46.0,45.0,40.0,39.3,37.0,84,78,65,29.66,29.62,7,1,16,0.00
2013-10-24,52.0,47.8,44.0,39.0,35.5,32.0,76,63,51,29.89,29.67,17,5,21,0.00
2013-10-29,50.0,45.8,43.0,38.0,34.5,32.0,74,65,52,30.41,30.29,10,4,16,0.00
2013-10-30,61.0,51.8,44.0,51.0,43.4,34.0,91,73,62,30.34,30.16,7,2,13,0.00
2013-10-31,63.0,57.8,53.0,59.0,55.4,51.0,94,92,85,30.22,29.83,13,6,24,0.00
2013-11-1,65.0,62.2,61.0,62.0,60.1,59.0,94,93,88,29.82,29.59,23,12,36,0.00
2013-11-3,50.0,45.3,38.0,45.0,36.3,25.0,82,71,52,30.35,29.81,17,9,20,0.00
2013-11-4,43.0,38.8,35.0,31.0,27.9,25.0,72,65,56,30.64,30.36,20,9,26,0.00
2013-12-5,56.0,52.8,49.0,54.0,51.5,47.0,97,95,93,30.17,29.97,12,6,17,0.00
2013-12-6,55.0,47.9,38.0,54.0,46.9,38.0,99,97,94,30.10,29.91,17,9,22,0.00
2013-12-7,40.0,36.1,33.0,38.0,29.7,-99.9,99,82,68,30.49,30.08,19,10,25,0.00
2013-12-8,34.0,32.3,30.0,31.0,24.0,21.0,92,71,66,30.66,30.44,15,6,21,0.00
2013-12-9,50.0,40.8,33.0,49.0,40.0,31.0,99,97,93,30.43,29.92,25,8,27,0.00
2013-12-10,38.0,35.1,32.0,37.0,32.5,24.0,97,91,71,30.07,29.85,19,6,25,0.00
2013-12-11,35.0,31.5,28.0,23.0,20.9,15.0,70,65,51,30.33,30.09,16,8,21,0.00
2013-12-15,51.0,38.4,34.0,51.0,36.5,27.0,100,93,71,29.97,29.43,19,9,37,0.00
2013-12-16,35.0,29.6,26.0,28.0,19.0,14.0,77,65,57,30.26,29.83,14,7,29,0.00
2013-12-17,42.0,29.8,23.0,41.0,26.4,14.0,97,88,61,30.29,29.90,17,7,25,0.00
2013-12-18,34.0,30.2,25.0,27.0,25.7,23.0,96,83,71,30.18,29.88,15,8,25,0.00
2013-12-19,46.0,38.3,30.0,38.0,30.2,24.0,81,72,64,30.21,30.03,16,8,25,0.00
2013-12-20,51.0,45.4,40.0,46.0,41.5,33.0,94,86,69,30.15,30.01,19,7,22,0.00
2013-12-21,55.0,49.3,46.0,51.0,45.7,-99.9,96,91,86,30.06,29.95,21,10,25,0.00
2013-12-22,58.0,52.9,51.0,55.0,51.7,50.0,100,96,89,30.00,29.88,20,12,32,0.00
2013-12-23,55.0,47.7,41.0,53.0,46.6,40.0,99,96,91,30.11,29.94,15,6,22,0.00
2013-12-24,40.0,35.2,30.0,39.0,26.8,17.0,95,72,59,30.26,30.05,20,11,24,0.00
2013-12-25,31.0,25.3,22.0,24.0,15.9,12.0,79,67,59,30.55,30.26,13,5,25,0.00
2013-12-26,44.0,36.1,31.0,40.0,31.0,25.0,93,82,74,30.48,30.14,15,7,21,0.00